Вернуться в каталог

CZ-6A DEB

АктивенPO
NORAD 54413·DEBRIS·🇨🇳 China

Запущен Nov 11, 2022 с Taiyuan Satellite Launch Center

Loading…

Ближайшие Пролёты (ближайшие 24 часа)

TLE

СвежийSource: Space-Track

Эпоха: Sep 13, 2026, 22:15 UTC

1 54413U 22151EM  26256.92720391  .00045901  00000-0  14547-2 0  9994
2 54413  98.8307  73.3353 0051263  95.1381 265.5709 15.31274708207777

Отслеживайте CZ-6A DEB в реальном времени с AllMySat

Download on the App Store